Weather History for MMZC - November, 2012

Change the Weather History Date:

Saturday, November 24, 2012

  Actual Average Record
Temperature  
Mean Temperature 54 °F -  
Max Temperature 60 °F 68 °F 77 °F (2010)
Min Temperature 48 °F 35 °F 26 °F (2006)
Degree Days  
Heating Degree Days 11    
Growing Degree Days 4 (Base 50)    
Moisture  
Dew Point 43 °F    
Average Humidity 70    
Maximum Humidity 87    
Minimum Humidity 52    
Precipitation  
Precipitation 0.00 in - - ()
Sea Level Pressure  
Sea Level Pressure 30.36 in    
Wind  
Wind Speed 7 mph ()    
Max Wind Speed 16 mph    
Max Gust Speed -    
Visibility 9.2 miles    
Events      
Averages and records for this station are not official NWS values.
T = Trace of Precipitation, MM = Missing Value Source: Averaged Metar Reports

Daily Weather History Graph

Daily Weather History Graph

Search for Another Location

Airport or City:

Trip Planner

Search our weather history database for the weather conditions in past years. The results will help you decide how hot, cold, wet, or windy it might be!

Date:

Astronomy

Nov. 24, 2012 Rise Set
Actual Time 7:10 AM CST 6:04 PM CST
Civil Twilight 6:46 AM CST 6:28 PM CST
Nautical Twilight 6:18 AM CST 6:56 PM CST
Astronomical Twilight 5:51 AM CST 7:23 PM CST
Moon 3:34 PM CST (11/24) 3:48 AM CST (11/24)
Length of Visible Light 11h 42m
Length of Day
10h 54m
Waxing Gibbous, 87% of the Moon is Illuminated
Nov 24
Waxing Gibbous
Nov 28
Full
Dec 6
Last Quarter
Dec 13
New
Dec 19
First Quarter

Hourly Weather History & Observations

Time (CST) Temp. Dew Point Humidity Pressure Visibility Wind Dir Wind Speed Gust Speed Precip Events Conditions
12:42 AM 48.2 °F 42.8 °F 82% 30.41 in 10.0 mi NNE 6.9 mph - N/A   Mostly Cloudy
1:41 AM 48.2 °F 41.0 °F 76% 30.40 in 8.0 mi Calm Calm - N/A   Mostly Cloudy
3:43 AM 50.0 °F 42.8 °F 76% 30.37 in 10.0 mi ESE 5.8 mph - N/A   Mostly Cloudy
4:42 AM 48.2 °F 42.8 °F 82% 30.38 in 10.0 mi NNE 6.9 mph - N/A   Mostly Cloudy
5:42 AM 48.2 °F 42.8 °F 82% 30.38 in 8.0 mi North 8.1 mph - N/A   Mostly Cloudy
6:46 AM 48.2 °F 42.8 °F 82% 30.40 in 8.0 mi North 9.2 mph - N/A   Overcast
7:45 AM 48.2 °F 42.8 °F 82% 30.42 in 8.0 mi North 6.9 mph - N/A   Overcast
8:45 AM 48.2 °F 44.6 °F 87% 30.43 in 8.0 mi North 8.1 mph - N/A   Overcast
9:45 AM 51.8 °F 46.4 °F 82% 30.44 in 8.0 mi NNE 8.1 mph - N/A   Mostly Cloudy
10:45 AM 53.6 °F 44.6 °F 72% 30.43 in 8.0 mi East 16.1 mph - N/A   Overcast
11:45 AM 55.4 °F 46.4 °F 72% 30.40 in 8.0 mi East 9.2 mph - N/A   Overcast
12:45 PM 57.2 °F 44.6 °F 63% 30.37 in 8.0 mi East 11.5 mph - N/A   Overcast
1:48 PM 60.8 °F 44.6 °F 55% 30.33 in 10.0 mi SE 11.5 mph - N/A   Overcast
2:46 PM 60.8 °F 42.8 °F 52% 30.30 in 10.0 mi SE 9.2 mph - N/A   Mostly Cloudy
3:45 PM 59.0 °F 42.8 °F 55% 30.30 in 10.0 mi East 11.5 mph - N/A   Scattered Clouds
4:42 PM 57.2 °F 42.8 °F 59% 30.28 in 10.0 mi East 12.7 mph - N/A   Partly Cloudy
5:41 PM 57.2 °F 42.8 °F 59% 30.28 in 10.0 mi East 12.7 mph - N/A   Scattered Clouds
6:40 PM 53.6 °F 42.8 °F 67% 30.29 in 10.0 mi SE 6.9 mph - N/A   Scattered Clouds
7:40 PM 53.6 °F 41.0 °F 62% 30.30 in 10.0 mi SE 9.2 mph - N/A   Scattered Clouds
8:45 PM 53.6 °F 39.2 °F 58% 30.33 in 10.0 mi SSW 3.5 mph - N/A   Scattered Clouds
9:46 PM 51.8 °F 42.8 °F 71% 30.34 in 10.0 mi Calm Calm - N/A   Mostly Cloudy
10:51 PM 51.8 °F 42.8 °F 71% 30.34 in 10.0 mi WSW 3.5 mph - N/A   Mostly Cloudy